Regional Weather Roundup
Issued by NWS

Home | Current Version | Previous Version | Text Only | Print | Product List | Glossary Off
Versions: 1 2 3 4 5 6 7 8 9 10 11 12 13 14 15 16 17 18 19 20 21 22 23 24 25 26 27 28 29 30 31 32 33 34 35 36 37 38 39 40 41 42 43 44 45 46 47 48 49 50

000
ASUS45 KCYS 220510
RWRWY

WYOMING REGIONAL WEATHER ROUNDUP
NATIONAL WEATHER SERVICE CHEYENNE WY
1100 PM MDT THU AUG 21 2014

NOTE:  "FAIR" INDICATES FEW OR NO CLOUDS BELOW 12,000 FEET
WITH NO SIGNIFICANT WEATHER AND/OR OBSTRUCTIONS TO VISIBILITY.

WYZ001-220600-
YELLOWSTONE NATIONAL PARK

CITY           SKY/WX    TMP DP  RH WIND       PRES   REMARKS
LK YELLOWSTONE   N/A     46  41  82 CALM      30.28F
W YELLOWSTONE  NOT AVBL

$$
WYZ002>013-054>058-071-098>099-220600-
NORTHERN WYOMING

CITY           SKY/WX    TMP DP  RH WIND       PRES   REMARKS
JACKSON        CLOUDY    50  48  93 E8        30.23R
CODY           MOCLDY    52  48  87 NE5       30.16R
GREYBULL       MOCLDY    60  48  64 W16       30.07S
WORLAND        PTCLDY    60  48  64 W5        30.09S
SHERIDAN       CLOUDY    58  54  86 NW9       30.11F
BUFFALO        CLOUDY    57  52  83 N13       30.16R
GILLETTE       CLOUDY    59  56  89 N13       30.10S
HULETT         CLOUDY    61  59  94 MISG      30.09
NEWCASTLE      FAIR      64  50  59 CALM      30.04

$$
WYZ014>020-022>026-101>103-220600-
CENTRAL WYOMING

CITY           SKY/WX    TMP DP  RH WIND       PRES   REMARKS
BIG PINEY      PTCLDY    47  44  90 CALM      30.23F
PINEDALE       MOCLDY    45  43  93 CALM      30.24F
DUBOIS         MOCLDY    50  41  71 N3        30.20F
LANDER         PTCLDY    62  40  44 W8        30.12S
RIVERTON       PTCLDY    62  47  57 N8        30.13S
CASPER         CLOUDY    61  45  55 W7        30.13R
DOUGLAS        CLOUDY    66  43  43 W7        30.11R

$$
WYZ021-027>030-104>119-220600-
SOUTHERN WYOMING

CITY           SKY/WX    TMP DP  RH WIND       PRES   REMARKS
EVANSTON       PTCLDY    57  42  57 SE8       30.20F
KEMMERER       PTCLDY    54  43  66 CALM      30.23F
FORT BRIDGER   FAIR      55  46  71 SE8       30.24F
ROCK SPRINGS   MOCLDY    53  44  71 S6        30.23S
DIXON          FAIR      55  47  74 E8        30.27F
RAWLINS        PTCLDY    52  45  77 CALM      30.25S
SARATOGA       FAIR      52  46  82 MISG      30.28S
LARAMIE        CLOUDY    54  45  71 E9        30.27F
CHEYENNE       MOCLDY    63  45  51 NW7       30.20F
TORRINGTON     CLOUDY    67  53  61 W7        30.05R
PINE BLUFFS    MOCLDY    68  46  45 NW10G20   30.15R

$$


USA.gov is the U.S. government's official web portal to all federal, state and local government web resources and services.